Prescott, AZ

3:46 PM MST on October 22, 2019 (GMT -0700)
Love

Weather History for KPRC - August, 2019

Change the Weather History Date:

Thursday, August 29, 2019

  Actual Average Record
Temperature  
Mean Temperature 77 °F 72 °F  
Max Temperature 93 °F 86 °F 97 °F (1996)
Min Temperature 61 °F 59 °F 45 °F (1968)
Degree Days  
Heating Degree Days 0    
Month to date heating degree days 0  
Since 1 July heating degree days 0  
Cooling Degree Days 12    
Month to date cooling degree days 376  
Year to date cooling degree days 944  
Growing Degree Days 27 (Base 50)    
Moisture  
Dew Point 54 °F    
Average Humidity 47    
Maximum Humidity 80    
Minimum Humidity 20    
Precipitation  
Precipitation 0.00 in 0.08 in 1.12 in (1997)
Month to date precipitation 0.30 2.48  
Year to date precipitation 8.11 9.52  
Sea Level Pressure  
Sea Level Pressure 29.95 in    
Wind  
Wind Speed 3 mph ()    
Max Wind Speed 16 mph    
Max Gust Speed 20 mph    
Visibility 10.0 miles    
Events      
T = Trace of Precipitation, MM = Missing Value Source: Averaged Metar Reports

Daily Weather History Graph

Daily Weather History Graph

Search for Another Location

Airport or City:

Astronomy

Aug. 29, 2019 Rise Set
Actual Time 6:00 AM MST 7:00 PM MST
Civil Twilight 5:34 AM MST 7:26 PM MST
Nautical Twilight 5:03 AM MST 7:56 PM MST
Astronomical Twilight 4:32 AM MST 8:28 PM MST
Moon 4:55 AM MST (8/29) 6:56 PM MST (8/29)
Length of Visible Light 13h 51m
Length of Day
12h 59m
Waning Crescent, 1% of the Moon is Illuminated
Aug 29
Waning Crescent
Aug 30
New
Sep 5
First Quarter
Sep 13
Full
Sep 21
Last Quarter

Hourly Weather History & Observations

Time (MST) Temp. Heat Index Dew Point Humidity Pressure Visibility Wind Dir Wind Speed Gust Speed Precip Events Conditions
12:53 AM 71.1 °F - 57.0 °F 61% 29.99 in 10.0 mi South 4.6 mph - N/A   Clear
1:53 AM 69.1 °F - 57.0 °F 65% 29.98 in 10.0 mi East 4.6 mph - N/A   Clear
2:53 AM 66.0 °F - 55.9 °F 70% 29.97 in 10.0 mi Calm Calm - N/A   Clear
3:53 AM 64.0 °F - 55.9 °F 75% 29.96 in 10.0 mi Calm Calm - N/A   Clear
4:53 AM 62.1 °F - 54.0 °F 75% 29.97 in 10.0 mi Calm Calm - N/A   Clear
5:53 AM 62.1 °F - 55.9 °F 80% 29.99 in 10.0 mi Calm Calm - N/A   Clear
6:53 AM 64.0 °F - 55.9 °F 75% 30.01 in 10.0 mi Calm Calm - N/A   Clear
7:53 AM 71.1 °F - 55.9 °F 59% 30.01 in 10.0 mi Calm Calm - N/A   Clear
8:53 AM 75.9 °F - 55.0 °F 48% 30.02 in 10.0 mi Calm Calm - N/A   Clear
9:53 AM 81.0 °F 80.7 °F 55.0 °F 41% 30.01 in 10.0 mi Variable 4.6 mph - N/A   Clear
10:53 AM 84.9 °F 83.3 °F 54.0 °F 34% 29.99 in 10.0 mi Variable 4.6 mph - N/A   Clear
11:53 AM 88.0 °F - 51.1 °F 28% 29.96 in 10.0 mi North - - N/A   Clear
12:53 PM 88.0 °F - 50.0 °F 27% 29.93 in 10.0 mi Variable 3.5 mph - N/A   Partly Cloudy
1:53 PM 89.1 °F - 50.0 °F 26% 29.91 in 10.0 mi Variable 5.8 mph - N/A   Partly Cloudy
2:53 PM 91.9 °F - 46.9 °F 21% 29.89 in 10.0 mi WSW 16.1 mph 19.6 mph N/A   Clear
3:53 PM 91.9 °F - 45.0 °F 20% 29.88 in 10.0 mi Variable 6.9 mph - N/A   Mostly Cloudy
4:53 PM 90.0 °F - 48.0 °F 24% 29.89 in 10.0 mi North - - N/A   Mostly Cloudy
5:53 PM 87.1 °F 85.3 °F 55.0 °F 33% 29.89 in 10.0 mi SE 10.4 mph - N/A   Mostly Cloudy
6:53 PM 84.0 °F 82.6 °F 54.0 °F 35% 29.92 in 10.0 mi ESE 10.4 mph - N/A   Scattered Clouds
7:53 PM 82.0 °F 81.2 °F 53.1 °F 37% 29.92 in 10.0 mi Calm Calm - N/A   Partly Cloudy
8:53 PM 78.1 °F - 55.9 °F 46% 29.94 in 10.0 mi Calm Calm - N/A   Clear
9:53 PM 77.0 °F - 55.9 °F 48% 29.93 in 10.0 mi SE 5.8 mph - N/A   Clear
10:53 PM 73.9 °F - 55.0 °F 52% 29.92 in 10.0 mi WSW 3.5 mph - N/A   Clear